Wetbulb
54.27 54.14 53.88 53.96 53.73 53.92 54.69 55.12 55.54 55.36 55.50 55.39 55.48 55.75 56.36 55.54 56.17 55.05 58.44 64.42 61.08 58.41 58.54 57.76 56.73 55.61 54.48 52.95 50.88 55.15 54.05 53.03 51.87 48.57 48.17 48.46 48.39 48.90 48.02 49.33 47.43 42.33 42.06 45.88 47.05 44.66 41.44 54.15 52.58 47.21 55.41 57.73 58.38 58.96
53.96 53.72 53.45 53.67 54.23 54.43 54.94 55.24 55.26 55.28 55.26 55.41 55.37 55.60 56.29 55.46 56.41 55.06 56.09 64.04 63.87 59.96 59.24 60.56 60.11 60.37 58.18 57.12 54.73 55.64 53.41 55.93 54.21 51.65 52.00 51.08 49.57 49.30 48.26 44.10 53.14 46.03 49.91 47.85 46.64 47.57 55.23 56.92 55.94 57.88 58.32 58.54 58.99 59.98
53.49 53.27 53.45 53.51 53.66 54.11 54.84 55.24 55.30 55.26 55.20 55.22 55.39 55.52 56.14 55.67 56.11 54.58 55.45 59.67 61.93 58.60 59.22 58.37 56.61 58.89 60.04 58.66 59.29 53.32 56.66 57.33 56.51 57.06 53.98 52.78 49.46 52.15 47.05 48.39 49.60 51.43 54.11 49.50 50.40 53.64 54.42 56.03 57.49 58.20 58.18 58.01 59.33 61.32
53.02 52.85 53.08 53.33 53.43 53.86 54.74 54.88 55.02 54.75 54.89 55.14 55.18 55.49 56.00 55.61 56.53 54.40 55.74 60.72 61.30 59.68 53.75 54.50 60.27 58.92 61.08 60.30 58.76 59.04 58.07 59.53 57.73 57.15 51.96 51.02 49.87 54.73 50.72 51.26 51.40 53.14 54.52 50.73 50.53 54.53 56.11 56.15 57.27 57.21 57.83 59.14 59.51 61.56
52.37 52.40 52.75 52.92 53.25 53.99 54.10 54.29 54.59 54.77 54.73 54.75 55.10 55.35 55.74 55.41 55.83 54.04 55.93 59.14 62.72 59.09 55.45 54.53 59.14 60.27 60.13 60.10 58.15 59.31 59.10 57.81 55.88 53.81 52.51 50.61 54.11 54.32 53.87 51.88 49.68 53.57 51.94 49.31 49.28 56.51 56.41 56.17 57.91 57.42 56.54 57.24 58.56 59.42
52.06 52.39 52.72 53.03 53.21 54.30 54.33 54.11 54.33 54.63 54.65 54.59 54.85 55.38 55.17 55.75 54.27 54.43 55.13 60.04 63.00 62.62 58.18 51.47 58.88 58.06 59.23 59.79 58.35 58.52 59.36 57.80 56.55 54.67 53.59 55.65 57.52 54.35 48.34 48.95 54.87 55.13 56.19 57.22 55.35 58.07 56.29 58.64 57.98 57.66 56.64 57.62 58.61 59.15
52.18 52.41 52.93 53.09 53.34 54.48 54.40 54.31 54.00 54.35 54.39 54.63 54.91 54.82 55.24 53.78 52.53 53.86 54.79 58.25 53.70 62.49 58.00 54.47 53.94 58.23 59.55 59.07 58.54 58.35 59.53 58.30 57.20 55.82 54.95 53.58 54.71 52.69 49.32 49.71 54.97 55.81 56.17 56.37 57.38 57.30 55.21 55.36 54.58 57.65 57.25 57.79 57.60 59.43
51.95 52.59 52.83 52.83 53.34 53.85 54.03 54.44 53.97 53.65 53.75 54.10 54.59 54.27 53.03 52.83 51.85 53.74 60.44 55.10 56.35 58.82 58.30 51.72 52.54 55.40 59.25 55.46 54.73 59.04 56.46 57.61 56.84 54.68 56.37 53.79 54.85 54.57 50.60 53.52 55.48 55.73 55.86 55.93 55.97 56.47 55.90 57.80 57.69 57.33 57.45 57.69 56.90 57.07
52.14 52.66 52.66 52.52 52.73 52.30 52.09 52.80 52.81 53.37 53.41 53.00 52.53 52.81 53.83 53.11 53.74 56.29 58.64 58.17 62.02 59.92 53.30 52.38 50.27 49.94 58.79 55.75 56.98 57.54 58.12 51.85 58.13 53.98 53.28 54.49 51.81 41.75 50.63 52.31 53.53 54.86 54.51 54.81 55.20 55.32 54.81 54.33 55.09 55.63 56.03 55.99 55.55 56.08
52.22 52.37 52.70 52.10 51.88 52.02 51.84 52.37 51.95 51.68 51.87 52.10 52.45 52.75 51.98 55.15 57.59 58.64 56.75 54.82 55.23 56.92 58.15 54.15 54.90 52.50 56.93 55.17 54.68 54.88 56.39 52.37 49.56 52.80 55.50 51.66 50.57 55.56 55.43 54.92 57.46 56.19 55.36 54.76 52.35 51.73 52.46 52.42 52.98 53.31 53.67 54.50 55.63 56.44
51.95 52.03 52.44 51.98 51.35 51.47 52.19 52.90 52.48 51.20 50.11 51.70 53.02 55.69 60.11 55.89 58.37 55.59 50.95 49.92 51.08 48.71 52.13 55.00 56.32 54.25 58.90 53.04 52.86 55.81 52.88 52.05 47.68 50.22 50.33 48.19 48.37 54.94 57.78 56.16 57.16 57.14 56.27 55.08 54.95 55.16 55.13 55.08 54.48 54.12 54.04 54.93 55.13 55.99
51.41 51.81 52.38 52.26 51.36 51.32 52.21 52.38 52.06 50.93 54.89 51.10 50.80 55.49 59.36 54.72 53.03 49.61 49.00 50.51 49.91 47.49 52.96 51.47 53.37 56.27 57.27 59.22 55.04 55.05 50.46 51.41 45.60 54.07 49.44 45.99 52.08 57.96 56.33 55.30 55.71 56.59 55.90 55.13 55.83 54.96 54.43 54.36 54.51 54.84 54.98 55.28 56.02 56.75
51.10 51.42 51.85 52.22 51.95 51.69 52.40 51.96 51.61 51.02 51.78 55.96 53.88 51.45 51.95 51.69 43.22 45.03 43.83 47.06 47.55 51.92 53.38 53.50 51.98 56.93 57.90 57.28 54.62 52.51 48.15 47.70 54.23 49.04 46.33 49.66 56.74 57.14 57.48 56.12 55.47 56.27 56.07 55.63 55.76 55.46 54.81 54.70 55.60 55.76 55.68 56.86 56.56 56.76
50.89 51.25 51.51 52.40 52.18 51.85 52.05 51.54 51.58 51.44 54.33 51.97 48.22 38.96 46.05 45.42 47.81 48.93 49.22 50.33 52.84 53.99 54.07 53.95 53.39 54.60 55.48 52.85 53.13 48.51 50.97 51.54 46.48 44.60 46.35 52.61 57.53 57.74 57.69 56.57 55.98 55.30 56.33 55.93 55.56 55.17 54.77 55.24 55.24 56.54 56.93 57.06 56.72 56.62
51.20 51.41 51.78 51.83 52.16 52.00 52.09 51.23 51.53 52.60 51.90 48.80 48.28 41.12 45.22 50.56 52.14 53.70 54.37 53.51 55.43 55.17 55.38 53.97 54.74 54.34 52.92 51.40 51.97 50.21 47.42 45.02 47.07 47.02 51.89 56.35 59.42 59.78 59.32 58.24 56.91 56.52 56.69 56.27 55.82 55.02 54.76 55.05 55.36 55.10 56.78 56.37 57.32 57.33
51.35 51.11 53.03 51.72 51.89 51.91 51.69 51.21 50.23 52.33 49.53 47.84 48.83 47.96 50.76 49.81 50.74 52.25 53.27 53.13 56.70 55.63 56.88 55.54 52.45 50.97 50.57 50.98 48.40 47.22 46.00 45.32 49.41 53.49 56.75 60.01 61.50 62.11 62.27 60.18 59.49 58.79 57.96 57.08 56.44 55.93 55.24 55.05 55.24 55.15 55.22 55.87 56.00 56.05
50.56 51.10 51.33 51.41 51.71 51.67 51.59 51.99 51.96 48.14 47.50 47.05 48.15 52.87 51.59 50.85 50.21 53.55 55.55 54.46 56.00 53.15 51.97 53.01 49.53 48.35 53.10 49.20 47.66 51.21 48.82 52.00 54.87 56.74 59.17 62.36 63.01 63.39 61.77 60.17 59.43 58.93 59.09 57.48 57.67 57.20 56.59 56.10 56.32 55.67 54.76 56.50 55.67 55.52
51.83 51.80 51.55 52.05 51.70 52.34 53.33 52.72 50.21 49.29 46.23 48.31 46.92 51.16 53.17 53.80 50.91 52.70 54.65 57.68 54.65 56.41 55.83 52.45 54.46 50.43 48.31 47.56 49.09 53.43 55.53 57.62 59.45 59.36 59.49 63.04 64.54 64.22 61.15 60.78 60.78 60.29 59.42 58.83 58.47 57.65 57.25 56.31 56.30 54.86 55.87 55.91 55.28 54.96
51.85 52.62 51.86 51.77 51.68 50.01 49.25 49.50 50.63 46.06 48.51 50.37 52.62 53.66 53.47 54.58 57.15 57.82 57.27 57.91 56.77 59.81 57.72 54.74 52.00 50.21 51.46 54.44 55.15 55.78 56.91 57.11 57.18 59.01 60.78 62.95 62.79 61.75 62.09 61.07 60.22 59.28 59.55 59.03 58.31 55.78 55.76 57.36 55.15 54.17 55.21 55.04 53.74 54.35
51.00 51.34 51.68 51.79 51.33 50.26 48.70 49.86 54.09 49.18 47.83 51.13 53.10 52.19 52.84 52.90 55.29 56.02 53.83 56.27 56.74 57.84 54.48 53.20 53.05 54.70 55.61 57.30 57.56 58.71 58.79 59.75 58.34 55.80 58.29 59.69 60.53 61.28 61.09 59.30 57.73 59.01 58.25 58.57 57.02 52.72 55.87 55.77 55.93 55.78 55.18 55.17 53.81 53.18
50.74 52.24 52.04 51.76 50.92 51.42 50.96 51.37 50.67 51.79 51.69 49.95 53.01 52.78 51.71 53.63 52.62 53.56 54.05 57.71 54.40 53.33 52.25 55.42 56.29 57.31 57.62 61.11 61.03 56.97 61.02 57.90 58.52 58.95 58.66 57.34 57.51 59.77 59.41 58.93 58.76 58.01 57.03 54.59 55.22 54.59 51.78 55.37 56.40 56.38 55.20 55.90 55.44 54.11
53.11 52.87 54.69 52.00 50.85 52.19 51.01 53.52 50.56 52.82 52.73 50.58 52.28 53.07 51.08 50.69 51.31 52.21 55.80 53.75 53.31 54.34 56.28 56.57 58.32 58.83 59.57 60.65 60.90 59.81 63.91 63.60 62.99 60.40 53.93 54.69 58.00 58.43 57.85 57.68 57.86 56.27 55.62 54.96 55.62 55.25 55.45 55.28 56.76 56.50 54.07 53.58 51.41 54.07
51.31 53.38 53.55 52.74 48.70 46.07 46.02 54.39 50.32 51.52 47.94 50.02 51.24 48.61 50.18 51.27 53.40 55.88 51.61 53.94 55.75 58.24 58.98 59.53 64.44 64.16 62.37 62.43 61.74 62.74 63.26 62.71 59.93 59.00 58.40 59.84 58.07 59.01 58.59 58.34 56.58 56.01 52.40 54.59 55.79 54.79 55.26 51.86 52.89 53.56 53.95 53.92 53.87 52.60
49.12 51.68 49.24 48.71 48.71 44.67 51.20 49.26 51.60 50.27 50.99 49.70 49.04 47.99 49.52 50.91 54.07 52.56 50.18 53.13 55.67 57.80 58.71 63.32 59.52 58.17 59.22 62.53 58.32 58.41 60.83 61.95 60.33 59.97 62.06 60.37 57.97 55.92 57.33 55.10 54.80 55.58 55.44 56.66 55.25 55.13 55.04 54.03 51.30 53.23 54.09 53.31 53.18 52.84
42.77 43.10 46.51 40.84 50.31 47.66 46.06 46.88 48.55 48.51 45.87 48.95 48.71 48.83 50.78 53.64 49.49 49.36 49.63 52.20 53.56 54.71 58.13 60.49 59.98 57.99 58.40 58.54 59.33 57.89 59.23 59.42 57.03 55.42 59.00 59.55 57.82 57.19 55.15 54.23 55.77 56.03 56.51 54.56 53.61 54.61 54.25 54.76 54.76 53.92 53.63 52.36 52.91 52.55
39.19 46.49 42.06 47.55 47.99 46.78 46.66 45.19 47.00 47.33 48.93 47.70 48.12 52.11 53.85 51.65 47.56 47.32 52.03 55.71 58.58 59.21 59.55 58.73 58.65 59.46 59.50 60.18 60.87 56.47 58.77 61.18 60.52 59.03 58.54 58.52 57.05 56.26 55.79 55.08 53.51 54.98 56.62 57.04 55.71 55.08 54.10 54.60 54.10 53.94 52.82 52.09 47.96 51.67
39.20 45.53 50.50 53.51 51.25 50.22 48.61 51.91 52.02 49.12 45.59 46.20 49.69 49.28 50.59 46.02 46.64 53.17 59.40 59.03 59.14 60.49 61.22 61.22 59.58 58.12 58.20 59.93 60.68 60.38 60.01 58.83 57.50 55.69 55.24 55.59 55.48 55.55 56.10 54.19 54.18 55.38 56.18 56.67 56.56 55.81 54.15 54.20 53.90 53.09 51.33 51.88 53.04 52.13
47.89 49.60 45.85 48.88 49.22 51.11 48.29 49.19 48.13 47.65 50.28 53.14 52.02 48.08 46.88 47.94 48.53 55.79 57.08 54.28 55.68 60.76 60.00 60.26 60.43 60.29 59.84 59.28 59.44 58.44 57.43 57.58 58.01 57.82 57.48 57.19 57.83 57.41 57.74 57.89 57.25 48.57 57.21 55.94 55.56 56.20 55.34 55.49 54.07 53.68 51.11 50.88 50.80 52.97
49.04 51.08 50.62 47.61 48.57 48.99 49.07 48.53 49.54 51.60 53.96 53.53 50.49 48.27 49.44 53.64 56.38 57.33 59.03 59.90 60.49 59.69 57.08 57.00 57.71 58.80 58.42 58.62 58.48 58.38 57.86 57.26 55.41 53.00 53.28 54.34 55.04 55.42 57.87 58.13 57.51 57.31 57.62 56.95 44.65 50.79 55.04 56.17 55.46 54.45 52.83 51.66 51.60 52.98
48.99 52.09 48.87 48.29 47.02 46.34 49.52 52.65 52.75 53.94 54.92 53.51 52.99 53.74 56.41 58.25 59.34 60.72 59.91 59.19 57.74 57.09 57.20 57.59 57.72 57.76 56.81 56.34 56.19 56.83 58.14 57.90 57.85 56.03 54.16 53.78 54.41 56.27 56.53 56.11 56.17 56.37 55.83 55.43 55.32 53.53 45.05 53.18 50.24 54.75 52.30 50.91 50.81 51.96
52.33 51.19 48.72 48.88 48.51 50.62 52.58 54.09 53.90 55.25 54.45 53.36 55.58 54.53 55.72 56.71 58.32 59.43 58.87 58.36 58.05 57.87 56.98 55.91 55.52 56.68 56.62 56.53 55.76 55.72 55.10 56.46 56.63 56.34 55.59 55.33 55.57 55.51 55.72 55.96 56.16 55.75 55.09 54.36 53.91 53.76 53.78 52.81 52.45 52.77 52.29 52.28 52.37 50.73
50.67 49.91 48.82 46.64 48.97 52.82 54.20 53.08 53.61 52.81 50.83 50.35 49.63 55.74 56.80 56.05 53.30 56.84 59.54 59.78 57.48 54.98 53.00 54.07 54.25 53.74 55.57 55.85 56.14 55.72 45.56 56.61 55.69 55.31 55.76 56.19 56.17 56.66 56.42 56.65 56.19 55.66 54.84 54.27 53.78 53.16 52.92 51.80 51.68 51.80 51.64 52.24 52.44 52.28
50.68 51.18 50.88 50.47 50.36 50.35 51.72 52.27 51.35 51.21 52.18 51.35 53.33 52.60 52.44 54.29 51.97 56.04 60.44 60.34 57.91 56.65 56.12 56.16 56.16 56.49 57.19 57.12 57.03 56.13 53.37 55.13 48.03 40.04 41.06 39.01 38.23 45.19 54.68 55.67 55.99 55.39 54.60 53.66 53.29 52.69 51.59 51.14 51.19 51.57 51.49 51.84 52.11 52.19
MSLP
1020.38 1020.11 1019.81 1019.59 1019.32 1018.90 1018.55 1018.23 1017.98 1017.68 1017.46 1017.23 1017.02 1016.85 1016.57 1016.40 1016.20 1015.82 1012.68 1011.09 1010.94 1008.98 1007.07 1006.18 1005.97 1006.06 1006.42 1006.69 1006.32 1007.17 1007.07 1006.88 1006.62 1006.52 1006.29 1006.65 1007.62 1008.53 1008.49 1008.60 1009.64 1010.62 1010.74 1008.66 1008.81 1009.06 1010.28 1010.98 1011.43 1012.72 1010.79 1010.35 1009.88 1009.33
1019.93 1019.68 1019.48 1019.13 1018.86 1018.46 1018.05 1017.73 1017.51 1017.24 1017.08 1016.90 1016.70 1016.56 1016.27 1016.16 1016.03 1015.96 1013.15 1010.59 1010.67 1010.21 1007.88 1006.83 1006.61 1006.76 1006.83 1007.16 1006.97 1006.82 1006.98 1007.28 1006.69 1006.68 1006.75 1007.01 1007.39 1008.10 1008.43 1008.20 1008.42 1008.60 1008.89 1008.90 1009.80 1010.04 1010.27 1009.81 1010.27 1010.37 1010.36 1009.86 1009.76 1009.40
1019.44 1019.21 1019.03 1018.77 1018.38 1017.96 1017.59 1017.19 1016.96 1016.80 1016.61 1016.51 1016.37 1016.21 1016.02 1015.86 1015.80 1015.90 1014.05 1012.10 1010.32 1009.61 1008.25 1007.28 1007.14 1007.21 1006.95 1007.19 1007.26 1007.42 1006.80 1007.02 1007.44 1007.84 1007.65 1006.92 1007.15 1007.43 1007.44 1007.60 1007.80 1007.96 1008.55 1008.80 1008.82 1009.27 1009.43 1009.64 1010.08 1010.42 1010.62 1010.48 1010.40 1010.13
1019.05 1018.88 1018.57 1018.31 1017.93 1017.46 1017.06 1016.70 1016.42 1016.26 1016.17 1016.11 1015.98 1015.90 1015.74 1015.64 1015.46 1015.57 1013.92 1011.76 1010.56 1009.32 1007.70 1006.17 1006.12 1007.16 1007.45 1007.25 1007.86 1007.80 1007.59 1007.98 1008.04 1008.18 1007.95 1007.53 1007.17 1007.60 1007.65 1008.12 1008.32 1008.33 1009.02 1008.98 1008.99 1008.97 1009.52 1009.89 1010.26 1010.62 1010.59 1010.81 1010.75 1011.05
1018.71 1018.48 1018.13 1017.78 1017.47 1016.98 1016.55 1016.23 1015.94 1015.74 1015.68 1015.66 1015.64 1015.58 1015.47 1015.43 1015.30 1014.98 1013.70 1012.14 1010.83 1010.43 1009.06 1007.12 1006.86 1006.92 1007.41 1007.52 1007.88 1008.01 1007.98 1008.19 1007.94 1007.83 1007.68 1007.48 1007.48 1008.15 1008.14 1008.18 1008.02 1008.16 1008.43 1008.84 1009.12 1009.56 1009.92 1010.48 1010.74 1010.90 1010.81 1010.92 1011.02 1011.19
1018.29 1018.10 1017.75 1017.44 1017.01 1016.49 1016.13 1015.81 1015.52 1015.29 1015.26 1015.23 1015.26 1015.25 1015.22 1015.24 1015.18 1014.41 1012.27 1010.66 1010.33 1010.06 1009.18 1008.94 1007.60 1007.06 1007.04 1007.77 1008.04 1008.33 1008.21 1008.39 1008.16 1007.62 1007.50 1007.62 1009.05 1009.68 1009.10 1008.41 1008.31 1008.59 1008.90 1009.08 1009.60 1009.95 1010.16 1010.59 1010.94 1011.11 1011.14 1011.23 1011.18 1011.27
1017.92 1017.66 1017.39 1017.01 1016.56 1016.10 1015.68 1015.43 1015.22 1015.07 1014.87 1014.90 1015.00 1014.99 1014.98 1015.03 1014.97 1013.74 1012.68 1011.81 1012.00 1011.08 1009.28 1007.14 1006.24 1006.86 1007.42 1007.81 1008.02 1008.19 1008.39 1008.30 1008.36 1008.00 1008.03 1008.62 1009.40 1010.17 1010.00 1009.58 1009.12 1009.29 1009.50 1009.84 1010.29 1010.33 1010.74 1010.64 1010.76 1010.94 1011.32 1011.34 1011.77 1011.57
1017.56 1017.27 1016.97 1016.69 1016.32 1015.88 1015.44 1015.11 1015.03 1014.92 1014.80 1014.77 1014.88 1014.82 1014.81 1014.86 1014.63 1013.07 1010.88 1011.36 1011.88 1010.85 1008.93 1007.14 1006.41 1006.70 1007.36 1007.34 1007.35 1007.53 1007.77 1007.77 1008.00 1008.25 1008.38 1008.99 1009.74 1010.22 1010.32 1010.02 1009.85 1009.72 1009.73 1010.20 1010.57 1010.74 1010.76 1010.80 1010.98 1011.32 1011.50 1011.52 1011.59 1011.82
1017.13 1016.83 1016.58 1016.42 1016.10 1015.74 1015.41 1015.17 1015.03 1014.80 1014.72 1014.75 1014.74 1014.76 1014.51 1014.20 1012.50 1011.01 1010.98 1010.95 1010.86 1010.54 1008.18 1006.86 1006.01 1005.88 1006.63 1006.88 1006.89 1007.44 1007.80 1007.72 1008.13 1008.07 1008.12 1008.85 1010.23 1010.67 1010.36 1010.21 1009.76 1009.85 1010.08 1010.25 1010.53 1010.75 1010.96 1011.02 1011.26 1011.53 1011.59 1011.77 1011.76 1011.86
1016.74 1016.46 1016.28 1016.19 1015.96 1015.68 1015.37 1015.19 1015.10 1014.83 1014.76 1014.76 1014.60 1013.87 1012.21 1011.06 1011.06 1011.23 1011.32 1010.28 1010.16 1009.15 1008.26 1006.59 1005.69 1006.91 1006.19 1006.43 1006.92 1007.52 1008.12 1007.67 1007.98 1007.64 1008.33 1008.67 1008.96 1009.44 1009.78 1009.80 1009.58 1009.78 1010.17 1010.26 1010.37 1010.79 1011.16 1011.43 1011.52 1011.62 1011.75 1011.83 1011.85 1011.87
1016.43 1016.18 1016.03 1015.97 1015.88 1015.61 1015.30 1015.15 1015.01 1014.86 1014.75 1014.49 1013.32 1012.14 1011.02 1011.24 1011.29 1010.28 1009.45 1008.96 1008.65 1007.80 1007.14 1006.13 1005.37 1005.81 1005.42 1005.74 1006.47 1007.62 1008.12 1008.29 1007.64 1007.64 1008.09 1007.73 1007.42 1007.23 1008.55 1009.12 1009.49 1009.82 1010.21 1010.45 1010.71 1010.96 1011.27 1011.46 1011.52 1011.58 1011.78 1011.98 1012.28 1012.30
1016.08 1015.96 1015.84 1015.76 1015.65 1015.36 1015.16 1015.18 1015.00 1014.89 1014.01 1014.38 1014.24 1012.65 1011.21 1010.70 1010.01 1009.00 1007.94 1007.38 1006.51 1006.26 1005.28 1005.34 1005.42 1005.29 1005.82 1006.10 1007.28 1007.91 1008.00 1008.10 1007.40 1007.28 1007.60 1007.02 1006.88 1007.56 1008.14 1008.66 1009.42 1009.80 1010.12 1010.40 1010.80 1011.22 1011.52 1011.75 1011.95 1012.07 1012.14 1012.11 1012.51 1012.60
1015.77 1015.67 1015.57 1015.45 1015.27 1015.16 1015.12 1015.18 1015.09 1015.01 1014.29 1013.52 1013.88 1012.95 1011.10 1009.73 1008.94 1007.92 1006.42 1005.72 1005.22 1004.56 1004.32 1004.26 1004.64 1004.97 1006.21 1006.46 1006.87 1007.73 1007.67 1007.18 1006.94 1006.96 1006.66 1006.46 1007.00 1007.47 1007.98 1008.52 1009.15 1009.65 1010.01 1010.34 1010.80 1011.34 1011.69 1011.98 1012.30 1012.35 1012.38 1012.49 1012.72 1012.90
1015.51 1015.38 1015.25 1014.96 1014.81 1014.93 1015.03 1015.24 1015.22 1015.04 1014.76 1013.61 1013.00 1012.59 1010.82 1008.96 1007.49 1006.12 1005.22 1004.54 1004.34 1003.95 1003.41 1003.72 1003.90 1004.39 1005.45 1006.48 1006.59 1006.95 1006.66 1006.41 1006.16 1005.85 1005.60 1005.46 1006.42 1007.09 1007.74 1008.30 1008.78 1009.30 1009.72 1010.20 1010.82 1011.34 1011.81 1012.14 1012.39 1012.43 1012.42 1013.03 1013.50 1013.82
1015.18 1015.06 1014.80 1014.42 1014.58 1014.90 1015.10 1015.12 1015.13 1015.23 1014.78 1013.88 1013.10 1011.73 1009.88 1008.12 1006.84 1005.73 1005.02 1004.49 1003.83 1003.71 1003.12 1003.32 1003.62 1004.40 1005.09 1005.86 1005.84 1006.11 1005.92 1005.87 1005.32 1004.87 1004.46 1005.09 1006.31 1006.99 1007.49 1007.91 1008.34 1008.84 1009.41 1010.02 1010.70 1011.22 1011.65 1012.08 1012.24 1012.54 1012.61 1013.30 1013.88 1014.28
1014.81 1014.58 1014.24 1014.44 1014.75 1014.96 1015.06 1015.17 1015.39 1015.32 1014.69 1013.91 1012.44 1010.11 1008.06 1007.44 1006.47 1005.85 1005.10 1004.72 1004.21 1004.61 1003.03 1003.21 1003.49 1003.88 1004.61 1004.82 1005.05 1005.00 1005.08 1004.65 1004.14 1003.85 1004.74 1005.50 1006.23 1006.79 1007.25 1007.55 1007.85 1008.33 1008.95 1009.73 1010.38 1010.86 1011.34 1011.77 1011.93 1012.49 1012.99 1013.42 1014.03 1014.40
1014.48 1014.16 1014.34 1014.64 1014.76 1014.84 1015.01 1014.92 1014.53 1014.45 1013.80 1012.31 1009.60 1007.82 1007.32 1007.37 1006.58 1005.26 1004.75 1005.13 1004.80 1005.29 1002.70 1002.66 1002.95 1003.46 1003.97 1003.90 1003.92 1003.98 1003.92 1003.80 1003.60 1003.68 1004.48 1005.36 1006.16 1006.66 1007.06 1007.34 1007.72 1008.21 1008.81 1009.52 1010.06 1010.60 1011.03 1011.42 1011.58 1012.25 1012.81 1013.43 1013.71 1014.30
1014.06 1014.16 1014.42 1014.68 1014.64 1014.66 1014.59 1014.55 1013.34 1011.90 1011.29 1009.86 1008.45 1006.08 1005.29 1005.82 1006.17 1005.82 1005.90 1005.32 1005.76 1004.02 1002.16 1002.29 1002.89 1003.06 1003.29 1003.25 1003.11 1003.29 1003.53 1003.59 1004.01 1004.50 1005.01 1005.75 1006.21 1006.57 1006.86 1007.24 1007.69 1008.22 1008.83 1009.31 1009.71 1010.22 1010.67 1011.13 1011.37 1012.06 1012.62 1013.28 1013.64 1014.12
1014.18 1014.20 1014.47 1014.57 1014.63 1014.46 1013.69 1013.39 1012.44 1010.76 1008.70 1007.89 1006.70 1005.43 1004.52 1004.27 1004.92 1005.59 1005.98 1005.69 1005.03 1003.43 1002.23 1002.40 1003.00 1003.04 1002.84 1003.12 1003.54 1003.88 1003.94 1003.92 1004.20 1004.76 1005.23 1005.86 1006.29 1006.66 1006.91 1007.24 1007.76 1008.30 1008.62 1009.15 1009.45 1009.74 1009.94 1010.54 1010.76 1011.35 1011.68 1012.22 1012.75 1013.15
1014.09 1014.14 1014.28 1014.46 1014.62 1013.54 1011.90 1011.39 1010.43 1009.10 1007.01 1005.99 1005.24 1004.61 1003.91 1003.46 1004.16 1004.17 1004.93 1004.74 1003.97 1002.84 1002.55 1002.82 1002.71 1002.54 1003.12 1003.74 1004.22 1004.28 1004.55 1004.19 1004.33 1004.78 1004.93 1005.25 1005.77 1006.29 1006.87 1007.15 1007.57 1007.86 1008.24 1008.74 1009.28 1009.45 1009.41 1009.76 1010.30 1010.50 1010.68 1011.58 1012.28 1011.92
1013.93 1013.24 1013.64 1014.18 1013.88 1012.92 1010.97 1009.84 1008.71 1006.76 1005.98 1005.13 1004.37 1004.06 1003.42 1003.11 1002.96 1002.85 1002.92 1002.99 1003.07 1002.81 1002.77 1002.46 1002.52 1002.82 1003.86 1003.60 1004.13 1005.17 1005.08 1004.51 1004.40 1004.30 1004.28 1004.36 1005.16 1005.84 1006.22 1006.81 1007.13 1007.44 1007.95 1008.35 1008.49 1008.87 1009.12 1009.02 1009.72 1010.00 1010.57 1010.83 1011.77 1011.56
1012.91 1012.88 1012.47 1013.24 1012.46 1011.04 1009.63 1008.32 1008.29 1006.91 1006.12 1005.84 1004.68 1003.88 1002.81 1002.38 1002.19 1002.25 1002.09 1002.18 1002.18 1002.78 1002.49 1002.27 1002.33 1002.63 1002.67 1003.46 1004.04 1005.00 1003.72 1003.62 1003.83 1004.08 1004.30 1004.58 1004.54 1005.07 1005.88 1006.59 1006.80 1007.23 1007.84 1007.88 1008.01 1008.00 1008.07 1008.58 1009.16 1009.32 1009.48 1010.14 1010.83 1011.20
1012.67 1012.34 1011.68 1011.07 1010.44 1010.07 1008.67 1007.08 1006.93 1006.11 1005.08 1004.39 1004.56 1004.03 1002.50 1001.84 1001.44 1001.43 1001.47 1001.48 1001.62 1001.88 1002.06 1002.08 1002.40 1002.67 1003.00 1003.33 1003.70 1004.28 1004.27 1003.97 1003.84 1003.84 1003.92 1004.07 1004.63 1005.18 1005.86 1006.79 1007.25 1007.74 1008.51 1008.90 1008.27 1007.99 1007.76 1008.19 1008.41 1008.66 1009.17 1009.85 1010.39 1011.18
1012.46 1011.43 1010.30 1009.45 1009.06 1008.13 1006.70 1006.23 1005.75 1005.10 1004.46 1003.46 1003.27 1002.33 1001.69 1001.41 1001.34 1001.28 1001.08 1000.96 1000.88 1001.20 1001.42 1001.69 1002.09 1002.38 1002.62 1002.84 1003.00 1003.14 1003.45 1003.80 1003.94 1005.09 1003.37 1004.05 1005.32 1006.79 1007.08 1007.83 1008.30 1008.70 1008.82 1009.34 1008.95 1007.63 1007.45 1007.86 1008.13 1008.56 1008.94 1009.48 1009.85 1010.28
1011.83 1010.80 1009.81 1008.78 1007.64 1006.55 1005.94 1005.67 1004.89 1004.60 1004.35 1003.56 1002.79 1002.20 1001.62 1001.56 1001.59 1001.49 1000.99 1000.73 1000.66 1000.45 1001.11 1001.79 1002.40 1002.70 1002.96 1003.18 1003.67 1004.50 1004.86 1005.36 1004.71 1005.60 1005.70 1005.41 1006.38 1007.39 1007.72 1007.64 1007.60 1008.16 1008.49 1008.65 1008.63 1008.00 1007.01 1007.26 1007.80 1008.12 1008.54 1008.92 1009.22 1009.75
1010.66 1009.15 1008.31 1006.23 1005.40 1004.83 1004.48 1004.34 1003.98 1004.52 1004.03 1003.42 1003.81 1002.80 1002.62 1002.05 1001.69 1001.47 1000.88 1001.04 1000.71 1000.88 1001.78 1002.22 1002.72 1002.98 1003.37 1003.67 1004.11 1004.49 1004.62 1004.37 1004.46 1005.05 1006.13 1006.37 1006.90 1006.87 1006.70 1007.06 1007.34 1007.55 1007.73 1007.66 1007.80 1007.10 1006.89 1006.86 1007.41 1007.94 1008.31 1008.57 1009.10 1009.24
1009.43 1007.41 1005.95 1005.19 1004.48 1003.78 1003.78 1003.30 1003.84 1004.18 1004.70 1004.03 1003.08 1003.71 1002.97 1002.57 1002.20 1002.28 1002.40 1003.48 1002.73 1002.36 1002.26 1002.20 1002.49 1003.03 1003.48 1003.40 1004.05 1004.53 1005.20 1005.74 1006.00 1006.61 1006.90 1006.77 1006.82 1007.09 1006.99 1006.71 1006.40 1006.73 1007.11 1007.04 1006.62 1006.74 1007.20 1007.42 1007.59 1008.41 1009.32 1010.06 1008.97 1009.19
1007.41 1006.00 1004.92 1004.29 1003.74 1003.36 1003.31 1004.08 1004.34 1004.17 1003.85 1003.74 1003.54 1003.22 1003.13 1003.16 1003.44 1004.01 1004.32 1004.68 1004.92 1003.79 1002.58 1002.91 1003.06 1003.01 1003.21 1003.60 1004.08 1004.96 1005.57 1006.12 1006.56 1006.59 1006.54 1006.52 1006.09 1005.46 1005.82 1005.82 1006.27 1006.54 1006.64 1007.37 1007.48 1007.71 1008.02 1008.32 1008.50 1008.76 1009.56 1010.90 1010.91 1009.49
1005.72 1004.46 1003.84 1003.31 1003.12 1002.78 1002.91 1003.52 1004.30 1004.91 1004.63 1004.36 1004.51 1004.78 1004.17 1004.11 1003.54 1003.62 1003.58 1003.59 1003.13 1002.81 1003.18 1003.26 1003.51 1003.87 1004.21 1004.54 1004.84 1005.04 1005.36 1005.54 1005.43 1005.61 1005.58 1005.45 1005.38 1005.58 1005.33 1005.35 1005.46 1005.67 1006.06 1006.55 1007.29 1007.67 1007.83 1007.90 1008.15 1008.75 1009.34 1010.18 1010.87 1010.27
1003.95 1002.94 1002.61 1002.59 1002.52 1002.38 1002.74 1003.61 1004.54 1004.59 1004.60 1004.70 1005.22 1004.86 1003.39 1002.85 1002.77 1002.66 1002.54 1002.65 1002.81 1002.90 1002.90 1002.82 1003.14 1003.21 1003.50 1003.92 1004.05 1004.15 1004.14 1004.24 1004.26 1004.47 1004.64 1004.60 1004.53 1004.65 1004.88 1005.01 1005.12 1005.18 1005.36 1005.53 1006.14 1006.93 1007.28 1007.46 1008.15 1008.54 1009.34 1010.05 1010.43 1009.92
1002.42 1002.14 1002.22 1002.01 1001.71 1001.85 1002.07 1003.18 1003.99 1004.66 1005.30 1005.32 1004.88 1004.12 1003.79 1003.00 1002.76 1002.68 1002.53 1002.58 1002.54 1002.46 1002.45 1002.36 1002.54 1002.62 1002.80 1003.49 1003.62 1003.88 1003.91 1004.06 1004.56 1004.60 1004.76 1004.40 1004.22 1004.57 1004.91 1005.34 1005.41 1005.53 1005.80 1006.14 1006.23 1006.26 1006.57 1006.96 1007.35 1007.58 1007.92 1008.34 1008.60 1008.68
1002.01 1001.70 1001.63 1001.82 1001.61 1001.37 1001.46 1001.88 1002.70 1004.20 1005.28 1005.47 1005.60 1004.28 1003.94 1004.15 1003.56 1003.30 1003.00 1002.77 1002.43 1002.73 1002.83 1002.74 1002.54 1003.14 1003.33 1003.61 1003.87 1004.42 1004.69 1004.86 1005.56 1005.71 1005.70 1005.21 1004.97 1004.77 1005.21 1005.28 1005.41 1005.65 1005.92 1006.08 1006.24 1006.26 1006.48 1006.88 1006.69 1006.72 1006.88 1007.29 1007.74 1008.14
1001.92 1001.52 1001.49 1000.99 1000.90 1000.88 1001.30 1001.64 1001.99 1002.41 1003.01 1003.82 1004.41 1004.76 1004.88 1004.52 1003.76 1003.38 1003.25 1002.94 1002.68 1002.36 1002.68 1002.98 1003.46 1004.00 1004.37 1004.36 1004.52 1004.94 1005.37 1006.18 1006.68 1006.75 1006.81 1006.71 1006.37 1006.12 1005.58 1005.61 1005.57 1005.76 1005.88 1006.04 1006.05 1006.16 1006.51 1006.58 1006.58 1006.76 1007.10 1007.36 1007.48 1007.70
Wind_Speed
11 12 13 14 15 15 14 15 14 13 13 11 11 13 12 11 9 7 9 9 6 8 11 6 5 1 2 4 7 3 7 5 6 4 5 3 2 4 4 1 8 6 4 5 6 4 3 11 14 1 1 3 7 11
10 11 13 14 15 15 15 13 12 12 12 11 11 12 11 10 8 6 6 4 4 5 8 6 7 6 6 7 6 5 2 9 5 6 4 4 1 3 3 4 5 3 3 6 9 3 4 6 9 7 8 5 6 7
10 11 13 14 14 15 15 14 13 13 12 11 11 11 12 9 9 5 7 9 5 7 10 7 9 6 3 4 7 6 4 6 1 5 7 5 2 7 4 3 5 2 6 5 8 10 10 8 6 7 6 7 9 10
10 12 13 14 15 15 14 14 12 12 12 11 11 12 12 9 8 6 6 8 8 7 9 8 11 9 4 4 3 8 6 2 5 3 6 7 7 1 3 3 4 5 2 3 7 6 7 5 7 5 5 6 7 7
10 12 13 14 15 15 14 13 12 12 11 11 11 11 11 9 8 8 9 9 10 7 5 2 8 10 9 7 3 2 1 4 5 6 6 6 3 3 3 6 5 4 6 3 3 7 4 6 4 2 3 4 5 5
10 12 12 13 14 13 12 11 11 10 9 10 10 10 9 7 5 6 5 9 10 6 5 3 10 7 6 6 4 3 2 4 5 4 5 2 6 3 4 4 4 3 3 4 4 3 2 5 2 1 4 4 5 2
10 11 12 13 13 13 11 10 9 8 6 7 7 8 8 6 4 6 5 4 10 7 6 8 6 10 8 7 5 6 6 6 3 6 1 5 4 3 4 7 7 4 2 1 4 3 4 7 5 5 2 1 1 4
10 10 11 11 11 10 10 8 7 5 4 4 6 6 7 7 11 8 7 10 2 6 7 4 4 8 11 7 8 4 3 5 6 4 1 4 5 1 3 5 7 7 1 4 4 3 8 2 1 3 3 7 6 5
9 10 10 9 8 7 8 7 5 3 3 3 4 5 5 5 5 2 6 7 4 6 5 7 8 2 10 8 5 5 0 4 2 6 5 2 4 3 6 8 7 5 5 5 7 6 4 5 4 6 5 7 7 7
9 9 9 7 6 6 7 7 7 6 5 5 5 6 5 5 9 5 3 5 5 5 6 8 9 8 7 8 7 4 0 4 4 1 4 4 9 12 11 10 6 7 7 7 6 6 5 5 6 6 6 7 8 8
8 7 7 6 6 5 6 8 9 8 2 3 4 1 3 3 4 5 6 7 7 7 9 11 9 7 8 6 5 3 3 3 3 3 3 4 6 7 14 10 6 7 7 6 3 2 3 5 5 5 6 5 6 9
7 7 6 6 6 5 5 9 11 4 1 3 4 6 3 5 6 6 6 7 8 14 7 14 10 5 5 6 3 4 3 2 5 5 3 3 4 11 9 11 9 9 9 8 6 4 4 4 4 5 5 3 4 7
6 6 7 7 5 3 2 7 10 10 10 3 3 2 4 4 1 8 11 9 11 8 10 12 13 6 4 3 5 3 5 6 1 3 5 6 9 9 8 9 10 10 10 9 7 5 4 4 3 5 5 4 3 1
6 7 8 8 5 3 1 4 6 6 4 2 2 1 4 6 7 8 10 10 9 12 9 11 11 5 4 6 5 5 5 4 5 6 8 5 12 11 10 9 10 11 11 9 8 7 6 5 6 6 5 6 6 5
6 7 6 3 3 3 0 3 2 1 2 1 1 5 9 9 10 6 8 6 10 6 10 11 8 6 8 4 4 4 4 4 5 6 6 10 12 10 9 10 10 10 10 9 9 8 7 8 7 5 4 7 6 4
5 7 2 3 4 3 1 2 2 0 1 3 6 7 5 10 10 7 9 10 7 5 9 10 6 8 6 6 7 8 5 5 6 4 10 11 10 7 7 8 9 9 10 9 10 9 8 8 8 8 5 6 7 6
3 1 6 3 2 3 3 2 5 7 4 6 8 11 3 3 8 11 10 5 3 7 10 11 9 6 5 8 12 6 11 8 4 6 8 11 9 7 6 7 8 8 9 10 10 9 9 8 8 10 8 5 7 6
3 4 6 1 4 3 3 3 4 8 8 7 8 12 5 6 2 6 4 3 8 16 10 5 3 10 7 7 7 2 4 5 7 7 7 8 6 6 6 7 7 8 9 9 9 10 10 9 8 8 9 6 6 5
4 3 3 3 4 2 4 5 4 5 7 9 14 10 7 2 5 7 5 2 7 15 2 4 3 5 6 4 2 2 5 3 1 0 5 6 5 6 6 8 9 10 9 9 10 9 9 11 10 7 9 9 8 8
8 8 7 5 3 4 6 5 6 7 5 5 10 10 8 5 8 2 2 5 6 2 4 6 5 4 3 5 3 1 4 3 2 4 7 7 8 10 9 9 9 10 8 10 11 10 9 10 8 8 7 6 7 8
3 5 9 8 5 7 5 2 5 6 5 5 5 9 6 6 7 8 8 7 4 3 3 7 7 7 6 5 5 6 9 4 8 7 6 3 6 10 10 9 9 9 9 7 9 8 11 8 7 7 9 12 14 9
3 9 4 8 4 4 6 6 4 5 3 6 6 7 9 8 7 7 6 6 7 4 8 7 6 7 5 3 4 3 7 1 3 5 6 6 8 8 7 8 10 6 3 7 9 9 9 8 11 11 8 8 4 2
5 5 4 5 6 6 7 7 3 7 5 8 7 4 7 6 5 6 7 7 5 5 7 7 3 2 2 3 8 13 11 8 8 9 9 5 4 2 2 6 4 6 6 7 3 7 5 6 5 7 7 6 8 8
4 4 5 5 8 5 5 5 5 6 6 5 6 7 7 6 6 5 4 6 5 7 8 6 2 5 6 8 9 9 6 8 5 16 3 5 8 6 6 5 5 5 4 3 10 7 6 8 8 9 9 10 7 9
1 6 4 5 5 6 4 5 10 8 10 10 11 6 1 5 4 4 7 9 9 7 4 5 3 4 5 5 1 5 7 4 2 6 4 8 8 3 2 3 6 7 8 7 10 13 8 9 9 11 11 10 11 11
4 5 5 6 7 7 4 4 5 6 8 5 5 5 1 3 3 6 3 4 7 6 8 6 3 1 3 6 4 2 5 2 3 3 5 3 3 3 3 1 3 5 2 7 12 12 8 7 11 12 11 12 7 9
5 7 7 8 6 3 5 3 1 4 2 5 3 3 4 4 6 1 6 11 6 4 4 1 5 3 3 5 7 7 7 5 4 6 3 3 4 4 9 8 7 5 7 12 2 3 1 8 1 5 8 18 7 10
6 5 7 8 7 6 4 1 3 3 4 2 2 5 1 4 2 2 3 7 13 13 6 7 6 6 6 6 7 6 5 6 5 6 5 6 9 3 2 4 5 6 6 8 2 3 2 4 6 10 10 4 16 8
8 7 9 7 7 5 4 4 2 1 3 1 3 5 3 6 5 2 3 8 8 3 6 5 6 6 5 5 5 5 6 7 8 7 3 1 2 1 3 1 3 4 5 6 9 12 9 13 8 7 12 12 13 14
9 9 6 6 7 5 4 4 2 4 4 2 4 6 2 5 6 5 1 4 3 4 4 5 5 6 7 6 7 6 8 6 1 3 7 5 7 8 7 4 1 1 3 3 5 10 9 9 8 8 9 9 11 11
5 5 5 7 5 6 3 11 5 4 8 5 9 5 5 4 5 5 4 5 4 6 7 5 4 1 8 4 5 2 0 5 5 3 6 7 3 6 7 5 3 3 5 6 6 4 2 3 6 8 9 11 13 13
5 6 5 5 6 5 4 7 6 10 7 5 4 6 5 2 3 0 2 2 1 6 2 5 7 6 6 5 6 6 5 10 10 10 14 9 9 5 5 1 2 3 4 3 2 4 3 4 5 7 10 12 11 7
9 5 6 7 1 7 5 3 4 4 4 4 5 4 3 4 4 3 1 3 4 4 6 6 7 6 4 6 6 7 8 7 8 10 9 10 12 13 8 8 4 4 1 3 2 2 2 2 4 5 3 5 6 10
Wind_Direction
287 296 301 302 305 308 300 300 301 301 297 293 292 300 302 308 322 320 290 271 287 286 291 295 330 135 240 248 291 89 255 192 242 255 292 344 68 228 319 253 162 140 315 318 350 321 114 187 47 15 342 283 331 343
287 295 300 303 302 305 301 296 295 294 291 286 283 292 292 295 304 327 271 211 228 262 330 315 33 37 5 344 336 332 42 234 357 321 352 306 323 214 261 290 128 208 273 358 142 248 126 69 96 76 8 22 341 336
288 296 298 302 303 305 303 294 286 286 283 280 280 281 281 283 294 299 298 302 250 252 254 209 202 204 254 315 352 290 332 23 5 1 318 298 109 304 299 333 300 172 38 292 323 134 129 105 102 71 32 19 342 12
289 297 301 302 307 309 304 298 289 284 278 270 269 274 273 274 289 294 277 304 298 295 268 213 149 161 233 47 320 329 331 345 306 255 257 280 292 7 264 358 318 46 209 354 294 182 134 153 78 19 44 19 8 44
292 297 302 306 306 308 311 301 292 284 273 264 262 266 266 271 292 283 267 269 278 281 318 40 211 165 210 125 232 275 349 288 232 211 225 250 323 353 295 294 297 232 245 259 342 78 109 109 105 356 358 10 3 38
292 297 300 302 304 304 309 306 305 290 270 260 254 252 257 269 312 273 235 206 244 243 272 68 282 159 140 142 192 212 211 250 259 293 284 67 91 327 294 302 155 244 287 9 40 95 40 93 103 300 317 323 14 79
293 297 301 305 309 308 301 306 307 303 274 253 246 248 257 260 259 253 339 352 341 317 246 214 174 162 176 187 193 214 176 254 299 295 172 275 118 204 271 276 320 5 24 355 304 207 237 259 261 176 265 30 288 316
291 299 304 307 312 327 334 315 299 297 286 262 255 253 267 282 273 270 233 207 263 258 260 257 127 152 178 195 225 185 265 215 175 257 39 234 154 24 257 260 262 262 208 200 234 224 271 91 81 304 241 282 223 214
293 300 309 305 318 336 342 340 348 330 295 261 265 285 254 222 227 211 147 151 217 288 268 255 254 193 160 212 195 177 227 281 123 245 243 164 79 209 234 240 243 192 222 210 209 215 239 260 240 248 253 264 260 277
292 301 309 296 311 325 339 340 328 315 295 292 254 210 205 161 124 121 197 171 193 231 229 267 236 169 205 180 181 134 351 268 200 142 116 233 223 226 224 235 249 173 198 217 197 190 211 244 260 261 248 259 276 253
283 297 311 284 287 298 342 342 329 325 301 234 233 242 53 71 224 221 196 189 199 206 216 242 275 153 206 183 148 136 169 260 236 218 232 249 253 189 180 206 172 186 196 205 226 290 299 285 281 237 237 244 271 285
284 296 308 294 268 283 348 346 336 277 322 310 293 278 228 213 221 215 204 206 198 209 198 207 229 205 198 125 145 147 221 301 253 148 233 269 180 132 159 167 175 188 194 197 192 209 229 241 244 251 259 247 245 256
284 299 306 296 265 248 324 352 338 314 299 259 200 253 223 226 182 200 203 192 213 185 212 186 205 135 114 235 123 184 241 237 231 234 253 231 120 136 153 164 174 186 196 198 180 201 206 194 222 234 207 220 219 313
288 296 297 282 235 202 163 329 336 323 286 294 155 299 243 214 219 223 214 205 201 209 184 185 187 165 130 186 183 202 233 238 229 235 245 180 153 153 162 177 181 190 196 190 184 188 193 176 208 206 173 106 72 67
288 300 315 114 124 167 199 8 33 305 315 270 195 217 234 238 264 257 254 223 238 286 180 189 160 173 173 160 211 205 183 227 240 240 236 120 144 155 166 184 195 192 194 190 183 187 185 186 188 197 144 152 136 122
298 292 207 136 177 170 103 139 121 39 18 263 234 236 238 227 231 242 250 206 252 271 179 185 165 182 185 184 195 208 215 245 248 205 124 141 142 150 165 194 204 193 188 184 189 189 185 196 196 150 144 134 151 165
331 229 167 171 144 155 188 235 186 193 221 236 231 226 141 359 277 240 231 146 257 277 196 174 186 158 189 217 226 214 220 243 302 103 96 124 148 162 180 196 199 193 170 191 189 189 185 201 202 159 178 149 171 145
232 138 163 287 358 189 189 212 268 197 214 254 275 262 220 158 5 303 328 210 185 236 194 148 186 198 195 223 235 176 315 62 33 33 112 131 146 159 179 191 185 179 185 197 192 191 184 206 203 151 146 160 167 165
18 117 221 298 325 283 181 211 245 273 240 213 238 259 259 183 113 182 180 223 262 275 53 79 155 227 217 296 159 228 255 229 228 24 113 128 154 167 189 183 184 202 196 192 198 202 196 195 205 192 191 174 207 211
264 260 241 240 249 255 216 201 213 244 258 244 243 251 266 244 147 240 43 266 251 261 166 195 220 245 18 120 333 90 1 349 219 196 190 185 176 184 202 194 207 196 195 189 207 219 215 183 202 221 214 173 219 231
180 217 176 182 214 231 276 315 276 263 287 260 233 243 229 225 250 223 200 178 204 212 239 255 188 218 242 212 132 37 280 190 246 257 285 322 160 191 195 207 217 216 194 194 201 202 225 211 194 228 167 196 206 227
222 181 204 181 239 254 247 205 191 277 295 239 306 274 235 215 208 214 232 206 197 197 263 266 297 299 305 83 57 223 273 162 226 262 234 202 216 202 195 221 220 199 223 202 197 219 185 199 198 215 176 176 194 121
219 215 225 225 218 198 251 244 230 244 256 174 186 239 256 239 230 204 208 205 208 217 241 256 163 106 290 203 180 214 252 264 267 271 271 262 38 29 197 94 93 101 94 313 8 254 176 192 201 198 177 173 177 150
193 250 242 213 200 242 228 209 239 237 271 235 259 247 205 206 190 203 250 250 218 217 225 221 208 264 270 258 268 279 326 336 349 349 264 150 119 66 89 109 92 117 123 244 268 249 188 176 199 190 185 188 215 197
167 262 203 250 242 230 196 232 219 223 219 247 238 225 217 186 192 230 217 212 220 212 129 85 38 358 294 298 67 58 27 346 101 174 263 82 106 124 151 180 174 200 194 192 231 263 223 175 197 198 200 213 212 205
212 236 205 229 214 217 186 280 194 216 261 218 226 226 145 275 181 247 233 356 76 81 69 64 76 43 34 326 355 163 197 202 23 101 118 133 224 285 314 250 183 265 285 234 228 248 245 204 194 217 203 204 201 202
232 241 231 237 265 274 249 236 359 168 95 293 94 357 210 201 216 51 28 15 27 54 72 232 105 135 63 87 88 71 67 77 85 111 118 79 33 266 201 224 217 191 177 253 288 337 290 251 175 94 37 356 229 196
257 269 247 244 245 233 220 23 249 271 344 349 230 219 215 4 20 60 94 74 269 257 70 60 40 52 50 73 83 97 92 94 107 122 147 190 231 240 265 112 113 93 86 83 70 94 29 64 97 95 101 106 287 258
231 242 247 241 235 252 214 202 161 200 271 273 342 25 22 218 182 160 156 200 220 86 102 95 81 84 77 90 107 126 151 175 178 199 168 233 226 214 265 180 201 208 166 173 136 180 208 206 163 166 156 163 222 262
246 253 237 205 244 247 184 97 129 236 263 34 159 230 80 85 141 186 214 77 114 136 135 129 138 171 132 158 176 194 194 172 271 169 175 196 183 163 175 178 80 9 31 42 192 131 110 130 137 148 164 189 240 241
240 201 230 254 222 216 183 141 183 61 18 320 292 300 139 118 92 66 69 93 142 171 181 182 117 75 148 114 76 154 95 104 75 28 2 345 115 102 85 55 15 46 48 0 334 335 134 193 229 208 197 198 218 226
232 242 174 225 244 248 208 192 197 155 154 186 272 243 99 71 109 118 169 318 163 119 45 300 84 70 43 68 82 75 26 40 31 16 14 355 360 124 132 177 148 93 42 341 253 252 170 237 253 233 222 221 204 221
230 186 238 247 225 155 188 196 243 225 138 153 119 75 27 209 153 172 115 337 16 58 73 72 78 70 72 41 50 113 83 73 85 64 59 46 39 18 2 21 33 49 358 293 337 95 206 300 279 205 214 251 232 238